Regional Weather Roundup
Issued by NWS

Home | Current Version | Previous Version | Graphics & Text | Print | Product List | Glossary On
Versions: 1 2 3 4 5 6 7 8 9 10 11 12 13 14 15 16 17 18 19 20 21 22 23 24 25 26 27 28 29 30 31 32 33 34 35 36 37 38 39 40 41 42 43 44 45 46 47 48 49 50
000
ASUS43 KTOP 222159
RWRKS

WEATHER ROUNDUP FOR KANSAS
NATIONAL WEATHER SERVICE GOODLAND KS
500 PM CDT FRI SEP 22 2017

NOTE:  "FAIR" INDICATES FEW OR NO CLOUDS BELOW 12,000 FEET WITH NO
SIGNIFICANT WEATHER AND/OR OBSTRUCTIONS TO VISIBILITY.

KSZ001>006-013>018-027>032-041>047-222300-
NORTHWEST KANSAS

CITY           SKY/WX    TMP DP  RH WIND       PRES   REMARKS
GOODLAND       MOSUNNY   92  41  17 S30G39    29.75S
HAYS           SUNNY     96  59  29 S25G35    29.76F HX  95
HILL CITY      CLOUDY    96  53  23 S24G36    29.75S
RUSSELL        SUNNY     95  59  30 S30G39    29.78S
$$

KSZ061>065-074>080-084>089-222300-
SOUTHWEST KANSAS

CITY           SKY/WX    TMP DP  RH WIND       PRES   REMARKS
DODGE CITY     SUNNY     94  54  25 S30G38    29.82S
ELKHART          N/A     91  61  36 SE20        N/A
GARDEN CITY    MOSUNNY   93  53  25 S26G36    29.79S
GREAT BEND     SUNNY     94  62  34 S23G35    29.81S
LIBERAL        MOSUNNY   92  55  28 S24G35      N/A
$$

KSZ066>073-081>083-090>101-222300-
SOUTHEAST KANSAS

CITY           SKY/WX    TMP DP  RH WIND       PRES   REMARKS
CHANUTE        MOSUNNY   89  68  49 S18       29.93S
COFFEYVILLE    SUNNY     89  68  49 S16G23    29.92F
HUTCHINSON     MOSUNNY   93  65  39 S26G38    29.84S HX  95
MEDICINE LODGE   N/A     92  64  39 S14G29    29.83S
NEWTON         MOSUNNY   90  66  45 S23G30    29.87S
PARSONS        MOSUNNY   89  68  49 S8G18     29.94S
WICHITA INTL   MOSUNNY   92  66  42 S22G35    29.85F
WICHITA JABRA  MOSUNNY   90  67  46 S18G29    29.87S
WINFIELD       SUNNY     89  69  51 S22       29.89F
$$

KSZ007>012-019>026-033>040-048>060-102>105-222300-
NORTHEAST KANSAS

CITY           SKY/WX    TMP DP  RH WIND       PRES   REMARKS
CONCORDIA      MOSUNNY   91  66  43 S18G33    29.81S
EMPORIA        MOSUNNY   89  68  49 S18G25    29.89F
LAWRENCE       SUNNY     89  69  51 SE17      29.90S
MANHATTAN      SUNNY     95  67  39 S21G30    29.83S HX  99
OLATHE IND     SUNNY     87  70  56 S17G24    29.94S
OLATHE EXE     SUNNY     86  70  58 S10       29.94S
SALINA         MOSUNNY   97  64  33 S22G32    29.81S HX  99
TOPEKA BILLARD SUNNY     90  70  51 S20       29.89S HX  95
TOPEKA FORBES  SUNNY     90  70  51 S16       29.90S HX  95
$$




USA.gov is the U.S. government's official web portal to all federal, state and local government web resources and services.